Regional Weather Roundup
Issued by NWS

Home | Current Version | Previous Version | Text Only | Print | Product List | Glossary Off
Versions: 1 2 3 4 5 6 7 8 9 10 11 12 13 14 15 16 17 18 19 20 21 22 23 24 25 26 27 28 29 30 31 32 33 34 35 36 37 38 39 40 41 42 43 44 45 46 47 48 49 50

000
ASUS45 KSLC 051310
RWRUT

UTAH REGIONAL WEATHER ROUNDUP
NATIONAL WEATHER SERVICE SALT LAKE CITY UT
700 AM MDT SUN JUL 05 2015

UTZ001>011-023>025-051400-

NORTHERN UTAH

CITY           SKY/WX    TMP DP  RH WIND       PRES   REMARKS
BRIGHAM CITY   CLOUDY    73  62  68 N8        30.02R
HILL AFB       CLOUDY    71  57  62 E10       30.03R
LOGAN          CLOUDY    69  63  81 E7        30.03R
OGDEN          CLOUDY    71  60  68 SW3       30.01R
PROVO AIRPORT  CLOUDY    75  54  46 S9        30.04R
SALT LAKE CITY CLOUDY    77  61  57 S5        30.00R
VERNAL         CLOUDY    68  56  65 CALM      30.10S
WENDOVER       CLOUDY    77  50  38 NW7       30.00R
HEBER CITY     CLOUDY    64  55  72 CALM      30.10R
WEST JORDAN    CLOUDY    75  55  50 SE9       30.04R

$$

UTZ012>022-026-027-051400-

SOUTHERN/CENTRAL UTAH

CITY           SKY/WX    TMP DP  RH WIND       PRES   REMARKS
BLANDING       CLOUDY    62  60  96 CALM      30.25R
BRYCE CANYON   PTCLDY    54  51  90 W6        30.29R
CEDAR CITY     PTCLDY    66  47  50 SE5       30.13R
DELTA          CLOUDY    72  53  51 SW3       30.04S
HANKSVILLE     CLOUDY    64  63  94 CALM      30.11S
MILFORD        PTCLDY    70  48  45 S15       30.07R
MOAB/CYNLANDS  PTCLDY    67  64  90 W3        30.08S
PRICE          CLOUDY    66  55  67 CALM      30.16S
ST GEORGE      CLOUDY    77  46  33 E7        29.98R
KANAB          CLEAR     61  54  77 NE3       30.17R

$$

REGIONAL REPORTS     COLORADO/ARIZONA

CITY           SKY/WX    TMP DP  RH WIND       PRES   REMARKS
CRAIG, CO      CLOUDY    61  56  83 CALM      30.18R
GRAND JUNCTION CLOUDY    64  62  93 W6        30.12R
RIFLE          CLOUDY    63  58  83 E3        30.15S
MONTROSE       CLOUDY    65  58  78 W5        30.18R
CORTEZ         CLOUDY    63  57  81 S3        30.19R
PAGE, AZ       MOCLDY    77  49  37 CALM      30.05R
GRAND CANYON   PTCLDY    56  52  86 CALM      30.26R
KINGMAN        CLEAR     75  51  43 S5        30.01R
FLAGSTAFF      CLOUDY    57  56  96 CALM      30.29R

$$

REGIONAL REPORTS    NEVADA/IDAHO/WYOMING

CITY           SKY/WX    TMP DP  RH WIND       PRES   REMARKS
LAS VEGAS, NV  PTCLDY    86  49  27 S10       29.84R
ELY            CLEAR     52  45  77 S10       30.17R
ELKO           CLOUDY    64  55  72 CALM      30.10R
POCATELLO, ID  CLEAR     74  50  42 SW13      29.98R
BURLEY         CLOUDY    73  52  47 S15       29.96R
EVANSTON, WY   LGT RAIN  60  53  77 SW12      30.20R
ROCK SPRINGS   CLOUDY    67  47  48 SW12      30.13R
KEMMERER       RAIN      63  48  59 W14       30.19R

$$



USA.gov is the U.S. government's official web portal to all federal, state and local government web resources and services.